Miscellaneous Local Product
Issued by NWS Hastings, NE

Home | Current Version | Previous Version | Graphics & Text | Print | Product List | Glossary On
Versions: 1 2 3 4 5 6 7 8 9 10 11 12 13 14 15 16 17 18 19 20 21 22 23 24 25 26 27 28 29 30 31 32 33 34 35 36 37 38 39 40 41 42 43 44 45 46 47 48 49 50
354
AXUS43 KGID 240802
MISGRI

GID CWA HOURLY WEATHER ROUNDUP
NATIONAL WEATHER SERVICE HASTINGS NE
300 AM CDT WED MAY 24 2017

NOTE: "FAIR" INDICATES FEW OR NO CLOUDS BELOW 12,000 FEET WITH NO
SIGNIFICANT WEATHER AND/OR OBSTRUCTIONS TO VISIBILITY.

...SOUTH CENTRAL NEBRASKA...

CITY           SKY/WX    TMP DP  RH WIND       PRES   REMARKS
GRAND ISLAND   CLOUDY    49  43  80 NW10      29.88F
HASTINGS       MOCLDY    48  41  76 NW12      29.88F
KEARNEY        MOCLDY    48  39  71 N9        29.89F
ORD            CLEAR     43  39  86 NW6       29.88F
YORK           MOCLDY    48  45  87 NW12      29.85F
AURORA         CLOUDY    49  44  82 N13       29.86F
LEXINGTON      MOCLDY    43  39  88 W9        29.92F
HOLDREGE       PTCLDY    43  39  86 NW8       29.90F
HEBRON         MOCLDY    49  45  84 N9        29.85S

...NEBRASKA PANHANDLE...

CITY           SKY/WX    TMP DP  RH WIND       PRES   REMARKS
CHADRON        CLOUDY    40  35  83 W3        29.93F
ALLIANCE       CLEAR     35  33  92 SE3       29.94F
SCOTTSBLUFF    PTCLDY    42  37  82 E3        29.96F
SIDNEY         CLEAR     33  31  92 SW9       29.98F WCI  25

...WESTERN AND NORTH CENTRAL NEBRASKA...

CITY           SKY/WX    TMP DP  RH WIND       PRES   REMARKS
VALENTINE      CLEAR     37  32  82 NW5       29.92F WCI  33
AINSWORTH      CLEAR     39  38  94 W7        29.92S WCI  34
ONEILL         CLOUDY    46  42  87 NW6       29.90S
BROKEN BOW     PTCLDY    47  41  80 NW9       29.90F
IMPERIAL       CLEAR     38  33  82 NW5       29.97F WCI  34
NORTH PLATTE   CLEAR     34  33  96 CALM      29.95F
MCCOOK         CLEAR     40  37  89 NW10      29.95F WCI  33

...EASTERN NEBRASKA...

CITY           SKY/WX    TMP DP  RH WIND       PRES   REMARKS
NORFOLK        CLEAR     46  42  86 NW13      29.84F
SO SIOUX CITY  CLEAR     46  46 100 NW9       29.81F
TEKAMAH        MOCLDY    49  45  86 NW13      29.80S
ALBION         CLEAR     46  41  84 NW6       29.86F
OMAHA EPPLEY   MOCLDY    50  45  83 N9        29.78F
OFFUTT AFB     CLOUDY    51  46  85 NW10      29.77F
MILLARD        PTCLDY    51  48  88 NW8       29.79F
LINCOLN        CLEAR     50  46  86 N12       29.83F
NEBRASKA CITY  MOCLDY    50  46  85 NW9       29.78F
BEATRICE       MOCLDY    50  47  88 NW12      29.81F
FALLS CITY     PTCLDY    48  46  93 NW8       29.76F

...NORTHERN KANSAS...

CITY           SKY/WX    TMP DP  RH WIND       PRES   REMARKS
GOODLAND       CLEAR     41  35  79 W9        29.98S
HILL CITY      CLEAR     43  39  86 NW8       29.94F
NORTON         SUNNY     39  34  81 W8        29.92S WCI  34
PHILLIPSBURG   CLEAR     45  41  87 NW6       29.91F
SMITH CENTER   CLEAR     39  37  93 NW6       29.90F WCI  35
HAYS           PTCLDY    41  39  93 W8        29.92F
RUSSELL        MOCLDY    46  42  86 NW9       29.89F
CONCORDIA      CLEAR     47  44  90 NW9       29.85F
SALINA         CLEAR     48  44  86 NW7       29.86F
TOPEKA         MOCLDY    50  47  89 W7        29.78F



USA.gov is the U.S. government's official web portal to all federal, state and local government web resources and services.